Regional Weather Roundup
Issued by NWS Northern Indiana

Home | Current Version | Previous Version | Text Only | Print | Product List | Glossary Off
Versions: 1 2 3 4 5 6 7 8 9 10 11 12 13 14 15 16 17 18 19 20 21 22 23 24 25 26 27 28 29 30 31 32 33 34 35 36 37 38 39 40 41 42 43 44 45 46 47 48 49 50

000
ASUS43 KIWX 040810
RWRIWX

KIWX WEATHER ROUNDUP
NATIONAL WEATHER SERVICE NORTHERN INDIANA
400 AM EDT FRI SEP 04 2015

NOTE: "FAIR" INDICATES FEW OR NO CLOUDS BELOW 12,000 FEET WITH NO
SIGNIFICANT WEATHER AND/OR OBSTRUCTIONS TO VISIBILITY.

* THESE STATIONS ARE NOT UNDER NWS QUALITY CONTROL. THEY ALSO MAY NOT
  REPORT WEATHER SUCH AS PRECIPITATION OR FOG.

INZ001>027-040900-
NORTHERN INDIANA

CITY           SKY/WX    TMP DP  RH WIND       PRES   REMARKS
GARY*          CLEAR     69  66  89 CALM      29.96S
VALPARAISO     CLEAR     69  66  90 CALM      29.97S
MICHIGAN CITY* CLEAR     64  64 100 CALM      29.97S FOG
LAPORTE*       CLEAR    N/A N/A N/A CALM      29.97R
KNOX*          CLEAR     64  64 100 CALM      29.95S
SOUTH BEND     CLEAR     67  65  93 CALM      29.97S
GOSHEN         PTCLDY    68  66  93 CALM      29.95S FOG
MONTICELLO*    CLEAR     67  67 100 CALM      29.95S
LOGANSPORT*    CLEAR     66  63  88 SW3       29.96S
ROCHESTER*     CLEAR     72  70  94 CALM      29.96R
WARSAW*        CLEAR     70  68  94 CALM      29.96R FOG
ANGOLA*        PTCLDY    68  59  73 CALM      29.96R
FORT WAYNE     MOCLDY    70  67  90 SW7       29.96S
HUNTINGTON*    CLEAR     70  66  88 CALM      29.96R
PERU/GRISSOM   CLEAR     70  67  90 SW3       29.95S
MARION*        CLEAR     67  60  77 CALM      29.98R

$$
INZ028>050-040900-
CENTRAL INDIANA

CITY           SKY/WX    TMP DP  RH WIND       PRES   REMARKS
LAFAYETTE      CLEAR     68  66  93 CALM      29.95R
KOKOMO*        CLEAR     72  64  78 SW7       29.96S
MUNCIE*        PTCLDY    72  66  81 SW5       29.98R
INDIANAPOLIS   CLEAR     73  66  78 CALM      29.97S

$$
MIZ043>046-050>051-056>058-064>065-071>073-077>080-040900-
SOUTHWEST LOWER MICHIGAN

CITY           SKY/WX    TMP DP  RH WIND       PRES   REMARKS
BATTLE CREEK   CLOUDY    68  66  93 NW6       29.95S FOG
BENTON HARBOR  CLOUDY    69  66  90 CALM      29.95S
COLDWATER*     CLOUDY    70  70 100 CALM      29.96R FOG
HILLSDALE*     CLOUDY    71  71 100 SE6       29.97R FOG
HOLLAND        MOCLDY    68  66  93 W3        29.96R
GRAND RAPIDS   CLOUDY    68  67  96 W7        29.94S FOG
KALAMAZOO      CLOUDY    68  65  90 W6        29.95S
STURGIS*       PTCLDY    70  68  94 W5        29.95R FOG
THREE RIVERS*  CLOUDY    69  67  94 CALM      29.95S

$$
OHZ001>008-015>018-024>025-040900-
NORTHWEST OHIO

CITY           SKY/WX    TMP DP  RH WIND       PRES   REMARKS
WAUSEON*       FAIR      68  68 100 SE8       29.96S
DEFIANCE       PTCLDY    71  67  87 NE5       29.95R FOG
FINDLAY        MOCLDY    71  66  84 SE8       29.97S
TOLEDO EXPRESS CLOUDY    67  65  93 SE7       29.96S
TOLEDO METCALF CLOUDY    69  64  84 SE9       29.97R
LIMA           MOCLDY    73  67  81 S7        29.97S

$$
AND FOR LAKE MICHIGAN COASTAL AND OPEN LAKE BUOY OBSERVATIONS

STATION/POSITION TEMP    WIND        PRES    VSBY  WAVE
                 AIR SEA DIR/SP/G                  HT/PER
                 (F)     (DEG/KT/KT) (MB)    (MI)  (FT/S)
CALUMET HARBOR    71      10/  4/  5   N/A
MICHIGAN CITY     71     360/  4/  4   N/A
BURNS HARBOR      72      30/  5/  7 1014.9F
SAINT JOSEPH      71     310/  5/  6 1015.2S
SOUTH LAKE BUOY   69 71  300/ 10/ 10 1013.8R         2/ 4
4 MI NW BRIDGMAN  70 73   30/  6/  8   N/A           1/ 4
MICHIGAN CITY     72 73   20/  6/ 10   N/A           2/ 4

$$
&&


USA.gov is the U.S. government's official web portal to all federal, state and local government web resources and services.